GW7169 Weather Reports


Display with metric or nautical units.
time (UTC)temp
F
wind
direction
speed
MPH
gust
MPH
rain 1hr
in
rain 24hr
in
rain mn
in
humidity
%
barometer
mb
20260507060844 64 100 1.0 1.0 0.00 0.00 0.00 42 1019.0
20260507060344 64 69 3.0 3.0 0.00 0.00 0.00 40 1019.0
20260507055845 64 63 1.0 1.0 0.00 0.00 0.00 44 1019.0
20260507055344 64 59 1.0 1.0 0.00 0.00 0.00 45 1019.0
20260507054844 64 211 1.0 3.0 0.00 0.00 0.00 46 1019.0
20260507054345 63 280 1.0 1.0 0.00 0.00 0.00 48 1018.6
20260507053844 63 49 1.0 1.0 0.00 0.00 0.00 49 1019.0
20260507053344 63 57 0.0 0.0 0.00 0.00 0.00 49 1019.3
20260507052845 64 28 1.0 1.0 0.00 0.00 0.00 48 1019.0
20260507052344 63 108 0.0 0.0 0.00 0.00 0.00 48 1019.0
20260507051845 62 81 0.0 0.0 0.00 0.00 0.00 50 1019.0
20260507051351 62 85 1.0 0.0 0.00 0.00 0.00 50 1019.0
20260507050845 62 57 0.0 0.0 0.00 0.00 0.00 51 1018.6
20260507050345 62 77 1.0 2.0 0.00 0.00 0.00 52 1018.6
20260507045845 61 53 1.0 1.0 0.00 0.00 0.00 52 1018.6
20260507045345 61 41 1.0 1.0 0.00 0.00 0.00 54 1018.6
20260507044844 61 46 0.0 0.0 0.00 0.00 0.00 53 1018.6
20260507044345 61 82 0.0 0.0 0.00 0.00 0.00 53 1018.6
20260507043844 60 78 1.0 2.0 0.00 0.00 0.00 55 1018.6
20260507043344 60 101 0.0 0.0 0.00 0.00 0.00 55 1018.6
20260507042844 60 102 0.0 0.0 0.00 0.00 0.00 55 1019.0
20260507042344 60 103 0.0 0.0 0.00 0.00 0.00 56 1018.6
20260507041844 60 112 0.0 0.0 0.00 0.00 0.00 55 1018.6
20260507040927 58 113 0.0 0.0 0.00 0.00 0.00 59 1018.6
20260507040344 58 112 0.0 0.0 0.00 0.00 0.00 60 1018.6
20260507035845 58 112 0.0 0.0 0.00 0.00 0.00 60 1018.3
20260507035344 58 112 0.0 0.0 0.00 0.00 0.00 60 1018.3
20260507034845 58 112 0.0 0.0 0.00 0.00 0.00 61 1018.3
20260507034344 57 112 0.0 0.0 0.00 0.00 0.00 61 1018.3
20260507033844 57 103 0.0 0.0 0.00 0.00 0.00 62 1017.9
20260507033344 56 99 0.0 0.0 0.00 0.00 0.00 63 1018.3
20260507032845 56 94 0.0 0.0 0.00 0.00 0.00 64 1017.9
20260507032344 56 94 0.0 0.0 0.00 0.00 0.00 65 1017.9
20260507031844 55 94 0.0 0.0 0.00 0.00 0.00 66 1017.9
20260507031345 54 92 0.0 0.0 0.00 0.00 0.00 67 1018.3
20260507030844 54 93 0.0 0.0 0.00 0.00 0.00 69 1017.9
20260507030345 53 92 0.0 0.0 0.00 0.00 0.00 70 1017.9
20260507025845 53 92 0.0 0.0 0.00 0.00 0.00 70 1017.9
20260507025344 53 92 0.0 0.0 0.00 0.00 0.00 71 1017.9
20260507024845 53 92 0.0 0.0 0.00 0.00 0.00 71 1017.9
20260507024345 53 92 0.0 0.0 0.00 0.00 0.00 71 1017.9
20260507023846 53 91 0.0 0.0 0.00 0.00 0.00 71 1017.9
20260507023345 53 91 0.0 0.0 0.00 0.00 0.00 70 1017.9
20260507022846 53 91 0.0 0.0 0.00 0.00 0.00 70 1017.9
20260507022344 53 91 0.0 0.0 0.00 0.00 0.00 70 1017.9
20260507021845 53 91 0.0 0.0 0.00 0.00 0.00 70 1017.9
20260507021344 53 91 0.0 0.0 0.00 0.00 0.00 70 1017.9
20260507020844 53 91 0.0 0.0 0.00 0.00 0.00 71 1017.6
20260507020345 53 91 0.0 0.0 0.00 0.00 0.00 71 1017.6
20260507015844 53 91 0.0 0.0 0.00 0.00 0.00 71 1017.9
20260507015344 53 91 0.0 0.0 0.00 0.00 0.00 70 1017.9
20260507014844 53 91 0.0 0.0 0.00 0.00 0.00 70 1017.9
20260507014344 53 91 0.0 0.0 0.00 0.00 0.00 70 1017.9
20260507013844 54 91 0.0 0.0 0.00 0.00 0.00 69 1017.6
20260507013344 54 92 0.0 0.0 0.00 0.00 0.00 69 1017.9
20260507012845 54 92 0.0 0.0 0.00 0.00 0.00 69 1017.9
20260507012344 53 92 0.0 0.0 0.00 0.00 0.00 69 1017.6
20260507011844 53 90 0.0 0.0 0.00 0.00 0.00 69 1017.6
20260507011346 53 90 0.0 0.0 0.00 0.00 0.00 69 1017.9
20260507010845 53 90 0.0 0.0 0.00 0.00 0.00 69 1017.6
20260507010344 53 91 0.0 0.0 0.00 0.00 0.00 70 1017.6
20260507005844 53 69 0.0 0.0 0.00 0.00 0.00 71 1017.6
20260507005346 53 69 0.0 0.0 0.00 0.00 0.00 71 1017.6
20260507004845 54 69 0.0 0.0 0.00 0.00 0.00 71 1017.6
20260507004345 54 69 0.0 0.0 0.00 0.00 0.00 70 1017.6
20260507003845 54 73 0.0 0.0 0.00 0.00 0.00 70 1017.6
20260507003345 54 75 0.0 0.0 0.00 0.00 0.00 69 1017.9
20260507002844 54 75 0.0 0.0 0.00 0.00 0.00 69 1017.6
20260507002345 54 74 0.0 0.0 0.00 0.00 0.00 68 1017.6
20260507001844 54 76 0.0 0.0 0.00 0.00 0.00 68 1017.6
20260507001347 55 73 0.0 0.0 0.00 0.00 0.00 67 1017.6
20260507000845 55 73 0.0 0.0 0.00 0.00 0.00 67 1017.3
20260507000344 55 73 0.0 0.0 0.00 0.00 0.00 66 1017.3
20260506235848 55 74 0.0 0.0 0.00 0.00 0.00 66 1017.6
20260506235346 55 74 0.0 0.0 0.00 0.00 0.00 65 1017.6
20260506234844 55 74 0.0 0.0 0.00 0.00 0.00 64 1017.3
20260506234345 56 70 0.0 0.0 0.00 0.00 0.00 63 1017.3
20260506233844 56 70 1.0 1.0 0.00 0.00 0.00 62 1017.3
20260506233347 56 80 1.0 1.0 0.00 0.00 0.00 62 1017.3
20260506232845 56 95 1.0 1.0 0.00 0.00 0.00 62 1017.3
20260506232345 56 72 1.0 1.0 0.00 0.00 0.00 62 1017.3
20260506231845 56 336 1.0 2.0 0.00 0.00 0.00 62 1017.3
20260506231344 56 338 1.0 2.0 0.00 0.00 0.00 61 1017.3
20260506230846 56 81 1.0 1.0 0.00 0.00 0.00 61 1017.6
20260506230345 57 83 1.0 2.0 0.00 0.00 0.00 61 1017.3
20260506225845 57 69 1.0 1.0 0.00 0.00 0.00 60 1017.3
20260506225344 57 61 1.0 1.0 0.00 0.00 0.00 60 1017.3
20260506224844 57 75 1.0 1.0 0.00 0.00 0.00 60 1017.3
20260506224345 57 64 1.0 0.0 0.00 0.00 0.00 60 1017.3
20260506223844 57 78 2.0 2.0 0.00 0.00 0.00 60 1017.3
20260506223345 57 70 1.0 1.0 0.00 0.00 0.00 60 1017.3
20260506222845 57 80 0.0 0.0 0.00 0.00 0.00 61 1017.3
20260506222344 57 81 0.0 0.0 0.00 0.00 0.00 61 1017.6
20260506221844 56 81 1.0 1.0 0.00 0.00 0.00 62 1017.3
20260506221344 56 85 0.0 0.0 0.00 0.00 0.00 63 1017.3
20260506220844 57 85 0.0 0.0 0.00 0.00 0.00 63 1017.3
20260506220344 57 85 0.0 0.0 0.00 0.00 0.00 63 1017.6
20260506215844 57 84 1.0 2.0 0.00 0.00 0.00 62 1017.3
20260506215346 57 64 0.0 0.0 0.00 0.00 0.00 61 1017.3
20260506214845 57 84 1.0 1.0 0.00 0.00 0.00 61 1017.6
20260506214344 57 84 0.0 0.0 0.00 0.00 0.00 60 1017.6
20260506213844 57 70 1.0 1.0 0.00 0.00 0.00 60 1017.6
20260506213345 57 89 1.0 1.0 0.00 0.00 0.00 60 1017.3
20260506212845 57 68 1.0 1.0 0.00 0.00 0.00 60 1017.6
20260506212344 57 77 0.0 1.0 0.00 0.00 0.00 60 1017.6
20260506211847 57 81 0.0 0.0 0.00 0.00 0.00 60 1017.9
20260506211344 58 75 1.0 0.0 0.00 0.00 0.00 59 1017.9
20260506210844 58 80 1.0 1.0 0.00 0.00 0.00 60 1017.6
20260506210345 58 77 1.0 1.0 0.00 0.00 0.00 60 1017.9
20260506205844 57 75 0.0 0.0 0.00 0.00 0.00 60 1017.6
20260506205344 57 76 0.0 0.0 0.00 0.00 0.00 61 1017.6
20260506204848 57 76 0.0 0.0 0.00 0.00 0.00 61 1017.6
20260506204348 58 76 0.0 0.0 0.00 0.00 0.00 60 1017.6
20260506203845 58 75 1.0 1.0 0.00 0.00 0.00 60 1017.6
20260506203344 58 73 0.0 0.0 0.00 0.00 0.00 60 1017.6
20260506202845 58 72 0.0 0.0 0.00 0.00 0.00 60 1017.6
20260506202345 58 95 0.0 0.0 0.00 0.00 0.00 59 1017.6
20260506201845 58 95 0.0 0.0 0.00 0.00 0.00 59 1017.6
20260506201345 58 24 0.0 0.0 0.00 0.00 0.00 59 1017.6
20260506200844 58 20 1.0 1.0 0.00 0.00 0.00 58 1017.6
20260506200345 58 54 1.0 1.0 0.00 0.00 0.00 58 1017.6
20260506195844 59 66 3.0 3.0 0.00 0.00 0.00 58 1017.6
20260506195346 59 77 1.0 1.0 0.00 0.00 0.00 57 1017.3
20260506194844 58 77 0.0 0.0 0.00 0.00 0.00 57 1017.6
20260506194345 58 95 2.0 2.0 0.00 0.00 0.00 58 1017.6
20260506193844 58 132 0.0 0.0 0.00 0.00 0.00 58 1017.6
20260506193345 59 134 0.0 0.0 0.00 0.00 0.00 58 1017.3
20260506192845 58 134 0.0 0.0 0.00 0.00 0.00 57 1017.6
20260506192345 58 93 2.0 3.0 0.00 0.00 0.00 58 1017.3
20260506191845 58 189 1.0 1.0 0.00 0.00 0.00 58 1017.3
20260506191344 59 182 1.0 2.0 0.00 0.00 0.00 57 1017.3
20260506190845 59 324 0.0 0.0 0.00 0.00 0.00 57 1017.3
20260506190344 59 230 2.0 5.0 0.00 0.00 0.00 57 1017.3
20260506185844 59 130 3.0 5.0 0.00 0.00 0.00 57 1017.3
20260506185345 59 233 3.0 7.0 0.00 0.00 0.00 56 1017.3
20260506184845 59 233 2.0 5.0 0.00 0.00 0.00 56 1017.3
20260506184344 59 303 2.0 5.0 0.00 0.00 0.00 55 1017.3
20260506183845 59 81 2.0 2.0 0.00 0.00 0.00 55 1017.3
20260506183345 59 331 2.0 2.0 0.00 0.00 0.00 54 1017.3
20260506182844 60 242 2.0 3.0 0.00 0.00 0.00 54 1017.3
20260506182346 60 84 1.0 1.0 0.00 0.00 0.00 54 1016.9
20260506181845 60 218 1.0 2.0 0.00 0.00 0.00 53 1016.9
20260506181345 60 104 0.0 0.0 0.00 0.00 0.00 53 1016.9
20260506180845 60 42 1.0 1.0 0.00 0.00 0.00 53 1016.9
20260506180345 60 256 0.0 1.0 0.00 0.00 0.00 53 1016.9
20260506175844 60 220 1.0 1.0 0.00 0.00 0.00 53 1016.9
20260506175344 60 208 1.0 0.0 0.00 0.00 0.00 56 1016.9
20260506174844 60 231 1.0 2.0 0.00 0.00 0.00 56 1016.6
20260506174345 60 208 0.0 0.0 0.00 0.00 0.00 55 1016.6
20260506173848 61 192 1.0 2.0 0.00 0.00 0.00 54 1016.6
20260506173345 61 210 1.0 1.0 0.00 0.00 0.00 54 1016.6
20260506172845 61 198 1.0 1.0 0.00 0.00 0.00 53 1016.6
20260506172344 61 221 1.0 1.0 0.00 0.00 0.00 53 1016.3
20260506171844 61 217 0.0 0.0 0.00 0.00 0.00 52 1016.6
20260506171344 61 233 0.0 0.0 0.00 0.00 0.00 52 1016.3
20260506170845 62 209 1.0 1.0 0.00 0.00 0.00 51 1016.3
20260506170345 62 232 0.0 1.0 0.00 0.00 0.00 51 1016.3
20260506165845 62 261 1.0 1.0 0.00 0.00 0.00 50 1016.3
20260506165345 62 83 1.0 1.0 0.00 0.00 0.00 50 1016.3
20260506164845 62 227 1.0 2.0 0.00 0.00 0.00 50 1016.3
20260506164346 62 223 0.0 0.0 0.00 0.00 0.00 49 1016.3
20260506163844 63 224 1.0 2.0 0.00 0.00 0.00 49 1015.9
20260506163346 63 242 0.0 1.0 0.00 0.00 0.00 48 1015.9
20260506162844 63 203 1.0 1.0 0.00 0.00 0.00 48 1015.9
20260506162344 63 274 0.0 0.0 0.00 0.00 0.00 48 1015.9
20260506161844 63 210 1.0 0.0 0.00 0.00 0.00 47 1015.9
20260506161346 63 265 2.0 2.0 0.00 0.00 0.00 47 1015.9
20260506160844 63 203 1.0 2.0 0.00 0.00 0.00 47 1015.9
20260506160344 64 212 1.0 1.0 0.00 0.00 0.00 46 1015.9
20260506155845 64 222 1.0 1.0 0.00 0.00 0.00 46 1015.9
20260506155345 64 235 1.0 1.0 0.00 0.00 0.00 45 1015.9
20260506154845 64 237 1.0 1.0 0.00 0.00 0.00 45 1015.9
20260506154344 64 221 0.0 0.0 0.00 0.00 0.00 45 1015.9
20260506153845 64 270 1.0 1.0 0.00 0.00 0.00 44 1015.6
20260506153344 65 226 1.0 1.0 0.00 0.00 0.00 44 1015.6
20260506152844 65 238 1.0 1.0 0.00 0.00 0.00 44 1015.9
20260506152345 65 209 0.0 0.0 0.00 0.00 0.00 43 1015.6
20260506151844 66 217 1.0 0.0 0.00 0.00 0.00 42 1015.9
20260506151346 67 239 0.0 0.0 0.00 0.00 0.00 41 1015.6
20260506150844 68 263 1.0 1.0 0.00 0.00 0.00 40 1015.6
20260506150346 68 142 1.0 2.0 0.00 0.00 0.00 39 1015.6
20260506145844 68 198 1.0 1.0 0.00 0.00 0.00 40 1015.6
20260506145345 68 195 2.0 3.0 0.00 0.00 0.00 40 1015.6
20260506144846 68 252 2.0 3.0 0.00 0.00 0.00 39 1015.6
20260506144346 68 234 1.0 1.0 0.00 0.00 0.00 40 1015.6
20260506143845 68 248 2.0 3.0 0.00 0.00 0.00 40 1015.6
20260506143346 68 267 1.0 1.0 0.00 0.00 0.00 39 1015.6
20260506142844 69 223 1.0 1.0 0.00 0.00 0.00 38 1015.6
20260506142344 69 236 1.0 1.0 0.00 0.00 0.00 38 1015.9
20260506141845 69 200 1.0 3.0 0.00 0.00 0.00 37 1015.6
20260506141345 69 168 1.0 1.0 0.00 0.00 0.00 37 1015.6
20260506140845 69 292 1.0 0.0 0.00 0.00 0.00 37 1015.6
20260506140347 68 271 1.0 1.0 0.00 0.00 0.00 38 1015.6
20260506135845 68 22 1.0 1.0 0.00 0.00 0.00 38 1015.6
20260506135345 68 215 0.0 0.0 0.00 0.00 0.00 37 1015.6
20260506134845 68 201 1.0 0.0 0.00 0.00 0.00 39 1015.2
20260506134344 68 324 2.0 2.0 0.00 0.00 0.00 37 1015.6
20260506133846 69 242 1.0 2.0 0.00 0.00 0.00 36 1015.6
20260506133345 68 229 2.0 3.0 0.00 0.00 0.00 36 1015.6
20260506132846 68 327 2.0 2.0 0.00 0.00 0.00 38 1015.6
20260506132344 67 356 1.0 1.0 0.00 0.00 0.00 38 1015.6
20260506131846 67 342 1.0 2.0 0.00 0.00 0.00 38 1015.6
20260506131345 67 280 0.0 0.0 0.00 0.00 0.00 37 1015.6
20260506130846 67 86 3.0 6.0 0.00 0.00 0.00 35 1015.6
20260506130344 68 44 2.0 2.0 0.00 0.00 0.00 34 1015.6
20260506125844 69 326 1.0 1.0 0.00 0.00 0.00 34 1015.9
20260506125345 69 32 1.0 1.0 0.00 0.00 0.00 33 1015.9
20260506124844 69 0 1.0 2.0 0.00 0.00 0.00 33 1015.9
20260506124345 69 68 2.0 2.0 0.00 0.00 0.00 32 1015.9
20260506123845 69 295 2.0 2.0 0.00 0.00 0.00 32 1015.9
20260506123348 69 174 0.0 0.0 0.00 0.00 0.00 32 1015.9
20260506122844 69 71 0.0 0.0 0.00 0.00 0.00 31 1015.9
20260506122344 70 322 1.0 1.0 0.00 0.00 0.00 31 1015.9
20260506121844 70 248 1.0 1.0 0.00 0.00 0.00 30 1015.9
20260506121345 69 86 2.0 2.0 0.00 0.00 0.00 31 1015.9
20260506120846 69 67 1.0 2.0 0.00 0.00 0.00 31 1015.9
20260506120345 68 335 1.0 2.0 0.00 0.00 0.00 31 1016.3
20260506115845 69 63 2.0 3.0 0.00 0.00 0.00 31 1015.9
20260506115345 70 265 1.0 2.0 0.00 0.00 0.00 30 1016.3
20260506114844 70 17 0.0 1.0 0.00 0.00 0.00 30 1015.9
20260506114344 69 98 1.0 1.0 0.00 0.00 0.00 31 1016.3
20260506113845 68 23 1.0 1.0 0.00 0.00 0.00 29 1015.9
20260506113345 68 292 1.0 1.0 0.00 0.00 0.00 30 1016.3
20260506112845 69 54 1.0 2.0 0.00 0.00 0.00 28 1016.3
20260506112345 71 333 1.0 1.0 0.00 0.00 0.00 26 1016.6
20260506111845 70 135 1.0 1.0 0.00 0.00 0.00 27 1016.6
20260506111344 69 249 1.0 1.0 0.00 0.00 0.00 29 1016.9
20260506110846 69 230 1.0 1.0 0.00 0.00 0.00 27 1016.9
20260506110344 69 237 1.0 1.0 0.00 0.00 0.00 29 1016.6
20260506105844 69 278 3.0 2.0 0.00 0.00 0.00 28 1016.9
20260506105344 68 7 1.0 1.0 0.00 0.00 0.00 32 1016.6
20260506104846 69 25 1.0 1.0 0.00 0.00 0.00 32 1016.6
20260506104344 67 286 2.0 2.0 0.00 0.00 0.00 32 1016.6
20260506103844 67 98 1.0 1.0 0.00 0.00 0.00 34 1016.9
20260506103345 68 90 1.0 1.0 0.00 0.00 0.00 33 1016.9
20260506102844 68 333 1.0 0.0 0.00 0.00 0.00 33 1016.6
20260506102345 67 267 1.0 1.0 0.00 0.00 0.00 33 1016.9
20260506101844 67 283 2.0 2.0 0.00 0.00 0.00 33 1016.9
20260506101345 66 47 1.0 1.0 0.00 0.00 0.00 34 1017.3
20260506100845 66 71 2.0 2.0 0.00 0.00 0.00 33 1016.9
20260506100345 66 80 3.0 3.0 0.00 0.00 0.00 34 1017.3
20260506095845 66 94 2.0 2.0 0.00 0.00 0.00 34 1016.9
20260506095344 66 350 1.0 1.0 0.00 0.00 0.00 34 1017.3
20260506094844 65 28 0.0 0.0 0.00 0.00 0.00 36 1016.9
20260506094345 66 53 1.0 5.0 0.00 0.00 0.00 35 1017.3
20260506093844 66 299 2.0 3.0 0.00 0.00 0.00 35 1017.3
20260506093344 67 274 2.0 2.0 0.00 0.00 0.00 35 1016.9
20260506092844 66 298 2.0 2.0 0.00 0.00 0.00 36 1017.3
20260506092344 66 295 1.0 1.0 0.00 0.00 0.00 36 1017.3
20260506091845 66 187 1.0 2.0 0.00 0.00 0.00 36 1017.3
20260506091344 66 229 0.0 0.0 0.00 0.00 0.00 37 1017.3
20260506090844 66 225 2.0 3.0 0.00 0.00 0.00 36 1017.3
20260506090345 65 27 1.0 1.0 0.00 0.00 0.00 38 1017.3
20260506085844 65 32 1.0 1.0 0.00 0.00 0.00 37 1017.3
20260506085345 64 307 1.0 2.0 0.00 0.00 0.00 39 1017.3
20260506084844 64 81 1.0 1.0 0.00 0.00 0.00 39 1017.6
20260506084345 63 308 1.0 1.0 0.00 0.00 0.00 40 1017.3
20260506083845 63 78 4.0 5.0 0.00 0.00 0.00 40 1017.3
20260506083345 63 257 2.0 2.0 0.00 0.00 0.00 41 1017.6
20260506082844 63 268 2.0 2.0 0.00 0.00 0.00 40 1017.6
20260506082347 63 28 1.0 1.0 0.00 0.00 0.00 41 1017.6
20260506081847 62 337 1.0 2.0 0.00 0.00 0.00 43 1017.3
20260506081345 63 298 3.0 5.0 0.00 0.00 0.00 40 1017.6
20260506080847 64 68 1.0 2.0 0.00 0.00 0.00 40 1017.6
20260506080345 63 320 2.0 2.0 0.00 0.00 0.00 42 1017.3
20260506073345 62 292 1.0 1.0 0.00 0.00 0.00 43 1017.3
20260506072846 62 71 1.0 2.0 0.00 0.00 0.00 44 1017.3
20260506072345 62 41 0.0 0.0 0.00 0.00 0.00 44 1017.3
20260506071846 62 154 2.0 1.0 0.00 0.00 0.00 44 1017.3
20260506071344 61 94 1.0 2.0 0.00 0.00 0.00 45 1017.3
20260506070844 61 327 1.0 1.0 0.00 0.00 0.00 46 1017.3
20260506070345 61 38 1.0 1.0 0.00 0.00 0.00 46 1017.3
20260506062344 58 77 2.0 2.0 0.00 0.00 0.00 51 1017.3
20260506061844 59 66 2.0 2.0 0.00 0.00 0.00 50 1016.9
20260506061344 59 88 2.0 2.0 0.00 0.00 0.00 51 1017.3